Tracking 19476 objects as of 17-Jan-2019
HD Live streaming from Space Station
objects crossing your sky now

OPS 9333 (IDSCS 18)

Track OPS 9333 (IDSCS 18) now!
OPS 9333 (IDSCS 18) is classified as:


NORAD ID: 2864
Int'l Code: 1967-066C
Perigee: 33,058.0 km
Apogee: 33,584.1 km
Inclination: 3.8 °
Period: 1,311.6 minutes
Semi major axis: 39692 km
RCS: 0.1584 m2 (medium)
Launch date: July 1, 1967
Source: United States (US)
Launch site: AIR FORCE EASTERN TEST RANGE (AFETR)
aabbcc
Your satellite tracking list
Your tracking list is empty




NASA's NSSDC Master Catalog

Two Line Element Set (TLE):
1  2864U 67066C   19013.65718095 -.00000093  00000-0  00000+0 0  9992
2  2864   3.8052 283.1782 0066275 357.0578 335.9711  1.09786166101850
Source of the keplerian elements: AFSPC